Location: Alamogordo
(32.8990°N, 105.9600°W)
Time: 07:41:32
(UTC-06:00)

Envisat - Visible Passes

Search period start: 29 September 2022 00:00
Search period end: 09 October 2022 00:00
Orbit: 764 x 765 km, 98.2° (Epoch: 28 September)

Date Brightness Start Highest point End Pass type
(mag) Time Alt. Az. Time Alt. Az. Time Alt. Az.
29 Sep 2.9 05:33:23 10° N 05:38:26 69° WNW 05:43:27 10° SSW visible
30 Sep 3.9 04:56:35 10° NNE 05:01:29 48° E 05:06:21 10° S visible
01 Oct 5.4 04:20:43 10° NE 04:24:22 20° E 04:27:59 10° SE visible
01 Oct 3.5 05:58:46 10° N 06:03:25 37° WNW 06:08:03 10° SW visible
02 Oct 2.9 05:21:30 10° NNE 05:26:36 89° ESE 05:31:40 10° SSW visible
03 Oct 4.4 04:44:57 10° NNE 04:49:36 36° E 04:54:14 10° SSE visible
03 Oct 4.2 06:24:35 10° NNW 06:28:19 21° WNW 06:32:02 10° WSW visible
04 Oct 5.7 04:09:37 10° ENE 04:12:25 15° E 04:15:13 10° SE visible
04 Oct 3.2 05:46:45 10° N 05:51:37 49° WNW 05:56:29 10° SSW visible
05 Oct 3.2 05:09:41 10° NNE 05:14:45 68° ESE 05:19:47 10° S visible
06 Oct 4.9 04:33:24 10° NE 04:37:41 27° E 04:41:58 10° SSE visible
06 Oct 3.9 06:12:20 10° NNW 06:16:34 27° WNW 06:20:46 10° SW visible
07 Oct 6.0 03:59:16 10° ENE 04:00:27 11° E 04:01:38 10° ESE visible
07 Oct 2.9 05:34:47 10° N 05:39:49 65° WNW 05:44:49 10° SSW visible
08 Oct 3.7 04:57:56 10° NNE 05:02:53 51° E 05:07:47 10° S visible
